SPOT 7

operational
NORAD ID: 40053 Int'l Des: 2014-034 Owner: CNES Country: F
LEOCIRCULARRETROGRADESSO

Über SPOT 7

Beschreibung wird geladen...

Live-Position

3D-Globus wird geladen...

Nächste Überflüge

Höhenverlauf

Altitude vs Time

uPlot chart will show altitude changes over time

Zweizeiliger Elementsatz

1 40053U 14034A 26061.19808208 .00000354 00000-0 81673-4 0 9996
2 40053 98.0769 126.3949 0001253 100.6869 259.4473 14.60849884621519
Epoch: 2. März 2026 • Age: 39 hours

Aktueller Status

Höhe 710.6 km
Geschwindigkeit 7.50 km/s
Subsatellitenpunkt -50.10°S, 110.45°E
Startdatum 30. Juni 2014
Alter 11.6 years
Typ other

Technische Details

Klassifizierung Payload
Masse 712.00 kg
Trockenmasse 712.00 kg
Gesamtmasse 712.00 kg
Länge 2.70 m
Durchmesser 2.00 m
Spannweite 7.00 m
Form Hex cyl+3 pan
Hersteller ADSUK
Bus-Typ AstroSat-500L
Phasenstatus Renamed
Besitzer/Staat CNES/F

Große Konstellationen

Loading constellations...